Location: Unspecified
(0.0000°N, 0.0000°E)
Time: 19:36:02
(UTC+00:00)

Vanguard 1 Rocket - Visible Passes

Search period start: 19 November 2017 00:00
Search period end: 29 November 2017 00:00
Orbit: 655 x 4222 km, 34.3° (Epoch: 18 November)

Date Brightness Start Highest point End Pass type
(mag) Time Alt. Az. Time Alt. Az. Time Alt. Az.
19 Nov 11.1 02:24:03 17° N 02:24:03 17° N 02:31:20 10° NE visible
19 Nov 10.3 04:44:40 10° NNW 04:56:30 25° NNE 05:03:50 10° ENE visible
19 Nov 10.1 19:32:55 10° WSW 19:48:30 81° NW 20:01:27 38° NE visible
19 Nov 11.0 22:03:41 10° W 22:18:45 36° NW 22:18:45 36° NW visible
20 Nov 11.4 01:16:55 11° NNE 01:16:55 11° NNE 01:17:24 10° NNE visible
20 Nov 10.7 03:34:13 16° NNW 03:42:09 21° N 03:50:48 10° NE visible
20 Nov 9.9 18:21:45 10° SW 18:34:36 74° SE 18:54:30 17° ENE visible
20 Nov 10.6 20:49:10 10° WSW 21:06:58 51° NNW 21:11:49 47° N visible
20 Nov 11.7 23:26:23 10° WNW 23:29:07 14° WNW 23:29:07 14° WNW visible
21 Nov 11.1 02:27:07 19° N 02:27:07 19° N 02:36:48 10° NE visible
21 Nov 10.0 04:46:48 10° NW 05:00:39 33° NNE 05:08:31 10° E visible
21 Nov 10.2 19:36:26 10° WSW 19:51:38 68° NW 20:04:52 35° NE visible
21 Nov 11.2 22:08:37 10° W 22:22:10 30° NW 22:22:10 30° NW visible
22 Nov 11.4 01:20:01 13° NNE 01:20:01 13° NNE 01:22:10 10° NE visible
22 Nov 10.6 03:37:20 18° NNW 03:46:39 26° NNE 03:56:02 10° ENE visible
22 Nov 9.9 18:24:58 10° SW 18:37:33 89° SE 18:57:55 16° NE visible
22 Nov 10.8 20:53:26 10° W 21:10:40 42° NNW 21:15:13 40° N visible
22 Nov 11.8 23:32:15 10° WNW 00:12:58 - NE 23:32:32 10° NW visible
23 Nov 11.0 02:30:16 22° N 02:31:10 22° N 02:42:19 10° NE visible
23 Nov 9.7 04:49:04 10° NW 05:04:36 45° NNE 05:12:47 10° E visible
23 Nov 10.4 19:40:13 10° WSW 19:55:02 56° NNW 20:08:14 31° NNE visible
23 Nov 11.3 22:13:57 10° WNW 22:25:33 25° NW 22:25:33 25° NW visible
24 Nov 11.3 01:23:14 16° NNE 01:23:14 16° NNE 01:27:27 10° NE visible
24 Nov 10.3 03:40:33 20° NNW 03:50:55 33° NNE 04:00:49 10° E visible
24 Nov 9.9 18:28:24 10° WSW 18:40:41 76° NW 19:01:15 15° NE visible
24 Nov 10.9 20:58:04 10° W 21:14:41 35° NNW 21:18:34 34° N visible
25 Nov11.800:16:14NE00:16:14NE23:35:52NWvisible
25 Nov 10.8 02:33:32 26° N 02:35:51 27° NNE 02:47:37 10° ENE visible
25 Nov 9.4 04:51:28 10° NW 05:08:18 60° NNE 05:16:44 10° ESE visible
25 Nov 10.5 19:44:18 10° W 19:58:41 46° NNW 20:11:32 28° NNE visible
25 Nov 11.4 22:19:33 10° WNW 22:28:50 21° NW 22:28:50 21° NW visible
26 Nov 11.2 01:26:33 19° NE 01:26:33 19° NE 01:32:57 10° NE visible
26 Nov 10.1 03:43:52 23° NNW 03:54:57 43° NNE 04:05:14 10° E visible
26 Nov 10.0 18:32:03 10° WSW 18:44:03 61° NNW 19:04:29 14° NE visible
26 Nov 11.1 21:03:05 10° WNW 21:19:04 29° NNW 21:21:47 29° N visible
27 Nov11.700:19:34NE00:19:34NE23:39:04NWvisible
27 Nov 10.6 02:36:54 31° N 02:40:15 33° NNE 02:52:34 10° E visible
27 Nov 9.2 04:54:13 10° NW 05:11:45 78° NE 05:20:23 10° ESE visible
27 Nov 10.7 19:48:42 10° W 20:02:39 37° NNW 20:14:42 25° NNE visible
27 Nov 11.5 22:25:11 10° NW 22:31:59 18° NW 22:31:59 18° NW visible
28 Nov 11.0 01:29:56 24° NE 01:29:56 24° NE 01:38:22 10° ENE visible
28 Nov 9.8 03:47:14 27° NNW 03:58:44 54° NNE 04:09:18 10° ESE visible
28 Nov 10.2 18:35:59 10° W 18:47:40 49° NNW 19:07:34 12° NE visible
28 Nov 11.2 21:08:26 10° WNW 21:23:47 25° NNW 21:24:52 25° N visible
